Location: Ida Center
(41.8662°N, 83.5713°W)
Time: 20:33:44
(UTC+00:00)

APEX - Pass Details

Date: 17 November 2019
Orbit: 333 x 1122 km, 69.9° (Epoch: 15 December)

Event Time Altitude Azimuth Distance (km) Brightness Sun altitude
Rises 23:04:40 0° 177° (S) 2,707 7.0 -10.0°
Reaches altitude 10° 23:07:22 10° 163° (SSE) 1,677 5.8 -10.5°
Maximum altitude 23:10:13 22° 111° (ESE) 1,014 4.2 -11.0°
Enters shadow 23:11:25 18° 79° (E) 1,111 4.2 -11.2°
